Hourly Data Report for September 16, 2017

All times are specified in Local Standard Time (LST). Add 1 hour to adjust for Daylight Saving Time where and when it is observed.

ST. PETERS
PRINCE EDWARD ISLAND

46°27'01.000" N
62°34'33.000" W
29.70 m
8300562
71310
ZSP

Download Data

Hourly Data (September 2017)
Hourly Data Report for September 16, 2017
Temp Definition
°C
Dew Point Temp Definition
°C
Rel Hum Definition
%
Wind Dir Definition
10's deg

Wind Spd Definition
km/h
Visibility Definition
km
Stn Press Definition
kPa
Hmdx Definition


Wind Chill Definition


Weather Definition


TIME
00:00 13.4 10.7 84 16 11   101.73     LegendNANA
01:00 13.6 11.4 86 15 11   101.70     LegendNANA
02:00 13.8 12.2 90 16 13   101.67     LegendNANA
03:00 13.8 12.8 94 16 13   101.63     LegendNANA
04:00 13.8 13.0 95 18 14   101.65     LegendNANA
05:00 14.0 13.3 96 17 10   101.64     LegendNANA
06:00 15.2 14.6 96 20 12   101.62     LegendNANA
07:00 16.4 15.9 97 21 18   101.62     LegendNANA
08:00 17.1 16.4 96 24 13   101.67     LegendNANA
09:00 17.9 16.7 93 22 15   101.66     LegendNANA
10:00 19.3 17.0 86 22 16   101.62     LegendNANA
11:00 21.5 17.6 78 22 15   101.55 27   LegendNANA
12:00 22.5 17.6 74 21 17   101.53 28   LegendNANA
13:00 23.8 17.1 66 22 17   101.50 29   LegendNANA
14:00 24.0 16.8 64 27 14   101.52 29   LegendNANA
15:00 18.3 15.2 82 34 19   101.59     LegendNANA
16:00 16.1 13.3 84 1 19   101.70     LegendNANA
17:00 15.0 12.2 83 3 15   101.72     LegendNANA
18:00 14.7 11.7 82 2 14   101.74     LegendNANA
19:00 14.3 12.1 87 3 15   101.74     LegendNANA
20:00 14.5 12.0 85 3 12   101.83     LegendNANA
21:00 13.7 12.2 91 2 12   101.87     LegendNANA
22:00 14.0 11.8 87 4 9   101.89     LegendNANA
23:00 13.9 11.2 83 4 9   101.89     LegendNANA

Notes on Data Quality.

Legend

  • E = Estimated
  • M = Missing
  • NA = Not Available
  • ‡ = Partner data that is not subject to review by the National Climate Archives
Date modified: